Location: De Har
(53.3413°N, 6.6858°E)
Time: 08:59:14
(UTC+00:00)

Cosmos 1606 Rocket - Pass Details

Date: 22 April 2026
Orbit: 595 x 625 km, 82.5° (Epoch: 15 May)

Event Time Altitude Azimuth Distance (km) Brightness Sun altitude
Exits shadow 01:18:04 36° 266° (W) 1,000 4.3 -20.7°
Maximum altitude 01:18:46 38° 289° (WNW) 954 4.4 -20.6°
Drops below altitude 10° 01:22:54 10° 358° (N) 1,995 7.0 -20.3°
Sets 01:25:16 0° 7° (N) 2,900 8.2 -20.2°
